Theta_e
338 337 338 338 340 340 342 341 342 342 343 340 340 338 337 333 327 324 322 324 326 324 332 333 339 338 337 340 339 339 340 331 332 336 336 339 336 322 322 325 329 330 331 332 336 338 338 338 338 338 339 340 341 340 340 340 340 338 337 338 337 335 330 327 326 324 323 322 321 320 319 318 318 317
341 341 340 340 339 337 336 341 342 341 341 339 341 339 341 338 332 331 324 326 332 331 334 330 334 337 338 342 341 338 335 327 331 334 335 336 336 319 320 322 324 324 322 323 326 331 334 337 337 338 338 338 339 340 340 340 339 338 337 336 334 329 327 328 326 325 324 323 322 321 319 318 318 317
340 339 338 339 339 341 341 340 339 340 342 341 341 341 340 342 338 332 329 322 329 335 331 332 332 333 336 335 336 337 334 330 329 332 333 331 326 319 322 320 319 318 316 317 318 322 329 332 333 336 336 336 337 338 340 339 337 336 333 329 327 323 326 328 327 326 325 323 322 320 319 318 318 317
340 337 336 338 339 341 341 341 340 342 342 342 340 340 339 341 341 337 333 327 329 336 333 333 333 334 332 334 334 332 335 335 325 329 328 330 324 333 323 317 317 316 315 315 315 317 322 326 327 328 331 331 333 334 336 337 333 328 326 325 323 321 326 328 327 326 325 323 322 320 319 319 317 317
340 339 336 338 340 341 340 341 342 341 340 340 340 339 339 338 337 334 332 327 328 332 337 340 336 333 334 330 334 328 328 327 327 325 331 333 330 331 331 323 314 315 313 314 312 311 312 314 315 320 327 327 322 326 329 326 323 326 326 325 321 319 322 326 327 326 325 323 321 320 319 318 317 317
340 340 337 335 334 334 334 337 338 338 339 340 338 335 337 336 338 341 333 334 328 329 332 336 334 333 333 328 327 326 328 327 327 327 330 330 330 328 329 327 323 313 314 313 311 309 309 310 309 312 319 320 309 308 311 313 320 325 324 322 318 316 317 323 326 326 325 323 321 319 319 318 317 316
334 328 329 328 330 333 331 332 341 340 340 338 336 336 337 337 340 339 339 332 329 327 330 336 329 330 331 328 327 327 328 328 329 323 329 329 331 332 332 331 327 311 312 312 311 311 311 311 309 310 312 311 309 309 310 308 309 314 317 315 313 314 315 318 324 325 324 323 321 319 318 318 318 316
330 330 330 331 331 329 329 328 331 339 339 340 340 339 338 341 338 342 341 338 331 330 328 330 328 331 330 327 325 327 327 324 323 324 330 330 328 325 334 328 328 318 311 313 312 311 312 311 309 308 309 309 309 309 309 308 308 308 312 311 311 312 313 314 316 320 323 322 320 318 318 318 316 315
332 331 330 331 333 330 329 328 330 337 337 337 339 337 336 336 337 339 340 338 336 331 328 331 330 331 328 327 325 324 323 324 324 328 323 322 322 327 325 326 330 318 310 312 312 310 311 310 309 309 310 310 309 309 310 309 308 309 309 309 309 310 312 312 313 314 315 315 313 312 312 313 315 314
332 331 331 332 332 330 328 329 332 335 336 337 336 335 337 337 337 337 336 336 334 332 331 329 328 328 327 325 325 324 323 323 324 324 321 321 323 324 323 324 325 329 325 326 320 311 311 308 308 310 310 310 308 309 309 307 308 308 309 308 308 309 310 310 310 310 310 309 309 309 308 310 312 314
332 330 330 330 331 331 330 331 331 333 335 338 338 340 337 338 337 338 336 335 334 331 330 329 328 325 325 325 323 324 326 328 325 319 318 319 322 325 322 321 326 326 326 323 320 321 323 315 314 307 306 309 309 310 310 309 309 309 308 307 307 308 309 309 309 307 306 306 306 305 305 307 309 311
332 330 330 331 330 331 331 332 333 335 334 338 336 338 336 336 336 334 334 333 331 330 329 326 324 325 327 321 325 327 323 321 319 321 320 317 318 319 321 321 322 324 323 321 322 316 315 315 315 309 308 309 311 310 312 311 311 311 309 308 307 306 307 308 307 306 306 306 305 304 304 304 305 307
331 330 331 331 332 333 335 336 335 336 335 336 336 334 334 333 329 328 330 331 331 330 328 326 325 320 321 321 322 321 317 316 316 319 321 317 319 319 317 319 325 322 319 321 321 321 320 328 322 320 322 320 314 314 314 311 312 311 309 307 306 306 306 307 306 306 305 305 304 304 303 303 303 304
332 331 331 332 336 337 337 336 330 323 325 337 339 336 335 333 329 329 330 329 330 328 325 323 323 320 320 322 317 318 321 320 321 320 317 315 317 318 314 317 321 321 319 318 316 318 321 325 324 324 325 326 326 321 318 315 315 309 306 306 306 306 305 305 305 305 304 304 304 304 303 303 303 303
331 333 333 333 336 337 338 335 324 319 318 321 324 327 332 338 335 331 330 329 329 327 325 325 322 320 321 322 321 320 321 321 319 318 318 317 318 314 311 309 317 321 318 315 314 315 319 320 321 320 323 325 322 319 313 310 310 307 305 305 305 305 305 304 305 304 303 303 303 303 302 302 302 302
330 331 334 336 336 335 334 334 332 325 318 312 312 313 314 317 321 325 332 330 328 326 324 323 323 321 320 319 321 320 322 315 318 319 318 318 313 313 310 311 310 317 319 315 314 315 319 319 320 318 324 321 318 316 307 305 306 305 304 304 304 304 304 304 304 303 303 302 302 302 302 301 301 301
331 332 333 336 337 336 338 337 336 336 328 318 317 317 315 311 309 304 306 313 331 329 327 324 322 321 322 319 317 319 319 321 318 319 317 317 316 314 312 312 312 315 321 315 313 311 314 315 313 315 324 318 315 312 307 306 305 304 303 303 303 303 303 303 303 303 302 302 301 301 301 300 300 300
333 332 332 334 335 336 336 335 335 336 336 330 327 327 327 326 322 308 304 304 309 321 328 326 322 326 326 321 322 323 322 319 318 318 317 317 315 314 313 315 315 318 321 314 314 311 312 315 317 314 321 323 318 312 304 303 304 303 302 302 302 302 302 302 302 302 301 301 301 301 300 300 299 299
337 336 336 335 336 336 335 336 336 336 335 334 331 330 329 330 325 323 322 322 323 324 326 324 324 328 329 327 323 322 322 323 322 320 319 316 316 317 317 317 317 317 320 319 315 311 310 315 313 314 318 318 314 310 303 302 303 303 302 302 302 302 301 301 301 301 301 301 301 300 300 299 298 298
338 338 337 336 336 336 336 333 318 327 335 334 330 328 329 329 331 330 332 320 319 331 329 325 328 321 314 314 321 324 323 321 323 322 320 319 318 317 315 312 314 314 318 320 315 312 309 314 312 312 317 318 314 313 308 303 304 303 302 302 302 302 301 301 300 300 300 300 300 300 299 298 298 298
337 337 337 337 336 336 335 324 309 308 320 332 332 330 329 330 330 330 326 303 297 295 296 297 297 294 294 295 294 296 303 315 316 318 313 312 315 312 309 310 310 310 315 316 319 314 309 314 312 313 313 313 314 312 310 307 303 302 302 301 301 301 301 300 300 300 300 300 300 299 299 298 297 298
337 338 341 339 336 335 335 312 307 306 317 331 332 331 329 328 328 328 323 317 310 295 294 293 294 294 294 295 296 295 294 298 313 316 310 314 313 312 311 308 309 310 311 313 317 313 312 314 313 310 312 311 316 314 312 307 303 302 301 301 301 301 300 300 300 300 299 299 299 299 298 298 299 301
336 336 337 337 333 337 329 304 303 303 317 330 332 331 330 328 327 327 324 319 316 316 316 314 313 310 305 310 315 310 296 302 317 317 316 317 313 310 310 311 309 307 309 313 321 312 312 312 314 311 309 307 314 314 310 308 308 307 305 303 302 300 301 300 300 299 299 299 299 298 298 298 300 305
334 335 336 329 312 313 308 302 301 302 304 328 332 331 328 326 325 329 327 321 319 318 318 318 319 319 319 318 319 319 308 310 318 317 318 317 315 314 312 312 309 307 308 316 317 314 313 313 309 313 310 306 305 312 311 311 310 310 308 306 304 301 302 301 300 299 299 299 298 298 298 299 301 306
332 333 334 334 317 305 305 302 302 303 301 312 332 332 329 330 332 325 327 324 325 321 319 319 320 319 319 319 319 318 318 315 316 317 318 319 318 316 313 311 311 310 312 316 312 315 312 312 309 310 311 310 309 308 312 312 314 312 311 310 306 303 303 303 302 299 298 298 298 298 298 299 300 304
330 332 333 332 319 304 304 302 301 301 302 302 327 331 308 303 308 328 329 327 324 324 321 320 318 318 316 316 316 317 318 320 318 317 318 318 319 318 317 315 312 310 311 316 307 316 312 311 311 310 310 309 309 308 307 309 314 314 313 312 308 306 307 306 305 302 300 300 298 298 299 298 300 300
333 331 331 332 318 302 302 301 300 301 301 304 320 296 296 299 300 315 327 326 325 323 322 321 319 317 317 316 315 316 317 319 320 319 317 318 317 317 318 319 318 315 315 315 318 315 314 311 312 310 309 311 309 307 306 305 311 314 313 311 309 309 309 308 306 304 303 303 302 299 298 298 298 299
332 330 332 329 308 302 302 300 299 300 301 310 306 298 298 297 306 323 324 323 324 320 320 319 319 318 319 318 317 317 319 319 320 320 319 318 318 317 318 318 315 315 315 315 313 312 313 311 312 312 312 310 308 306 304 306 309 311 310 312 310 310 311 309 308 306 305 304 303 300 301 300 301 301
325 314 311 314 303 301 301 298 297 299 299 302 305 302 300 317 320 321 322 323 324 321 319 319 319 319 319 319 319 320 320 320 321 319 320 320 320 320 320 317 316 316 319 317 313 313 312 312 312 313 313 312 309 308 307 304 306 306 308 310 308 308 310 310 309 306 305 305 302 301 301 302 302 303
294 294 295 297 297 298 300 307 312 316 313 300 299 299 304 317 319 320 321 322 322 321 321 319 318 319 319 319 320 321 324 321 320 319 318 318 318 318 316 314 315 315 315 315 314 312 311 311 313 314 312 311 311 309 307 306 304 306 305 305 310 309 309 310 309 308 306 305 303 301 302 302 302 303
309 304 308 306 304 304 302 309 310 315 308 305 307 309 313 317 319 321 321 321 322 321 321 320 320 320 321 322 319 318 318 316 318 319 316 316 315 315 313 312 312 313 314 314 313 313 311 311 312 314 311 311 311 310 308 309 306 304 304 305 306 304 308 310 309 308 307 306 305 303 303 302 301 303
321 317 307 309 317 314 316 318 320 321 320 316 313 315 316 316 318 321 325 324 322 323 323 323 322 319 320 319 319 317 315 314 315 317 316 315 314 313 314 311 311 311 311 312 312 311 310 311 313 314 315 312 310 309 309 308 306 304 304 306 306 306 307 310 309 308 308 307 305 303 303 303 303 303
320 319 318 318 318 317 318 317 320 321 321 319 319 319 319 318 318 319 320 320 320 321 322 322 321 320 321 319 318 315 316 316 315 317 315 315 314 313 312 310 308 307 307 310 310 312 312 312 313 313 314 313 312 310 308 304 306 305 303 303 305 304 304 304 307 309 308 306 304 303 303 303 304 304
323 321 321 322 321 320 320 320 319 320 321 321 320 320 313 319 319 318 319 319 319 321 320 321 321 320 320 319 318 316 314 315 316 315 310 315 314 311 310 308 308 309 308 307 311 311 312 312 312 312 314 314 315 312 311 308 305 306 305 305 304 304 304 305 306 310 308 307 304 303 302 303 304 304
326 325 323 323 322 321 323 321 321 321 322 322 322 322 320 321 319 316 319 320 317 317 319 318 319 318 319 318 318 316 314 313 315 315 313 314 314 311 310 309 308 309 308 308 309 312 312 311 311 311 311 310 310 310 309 312 307 308 308 305 304 303 303 305 303 308 308 306 305 302 303 304 304 305
323 324 323 322 322 320 320 318 318 320 320 320 321 321 322 321 321 319 319 320 321 318 318 318 315 317 318 318 318 316 315 310 314 315 313 313 313 311 311 310 309 309 310 308 307 311 311 311 310 307 306 305 304 302 304 305 307 309 306 306 306 305 305 304 304 307 308 306 305 304 300 300 303 305
322 322 321 320 321 322 320 321 323 321 321 322 322 320 318 318 318 320 321 316 321 318 318 317 318 317 317 316 316 309 312 311 312 313 312 312 311 311 310 310 308 309 309 309 309 311 311 310 309 307 305 303 302 298 300 306 304 306 310 307 306 307 304 304 303 302 302 302 306 303 301 302 301 303
321 322 321 318 318 319 318 318 319 317 318 319 319 318 319 319 320 320 322 321 319 317 316 317 315 316 317 315 317 316 315 313 313 313 312 313 312 311 310 310 310 310 309 309 310 310 312 310 309 308 307 303 297 297 298 302 305 305 304 308 306 306 305 302 301 300 301 302 301 302 302 301 300 301
320 318 319 319 318 318 319 319 318 319 320 319 318 318 318 319 320 320 319 318 319 318 318 317 317 314 317 317 315 317 315 314 313 311 312 312 312 312 310 310 310 310 310 309 309 308 311 310 309 309 308 306 303 302 303 299 296 303 306 305 308 305 305 303 300 300 300 300 300 303 304 301 299 295
317 318 318 318 320 321 319 318 318 318 317 318 319 320 320 318 319 319 319 319 318 319 319 317 316 315 317 316 312 316 316 316 315 315 314 313 311 311 311 310 310 310 309 308 307 307 309 310 310 310 310 310 309 310 308 297 293 303 306 305 304 307 305 304 301 302 299 300 301 299 297 300 297 298
316 316 316 316 318 318 318 318 318 319 319 319 320 315 319 320 319 320 319 319 313 320 319 319 318 318 317 317 316 315 313 309 313 314 313 314 308 304 306 300 308 309 308 309 309 308 307 310 310 300 307 312 311 310 300 296 295 296 295 300 301 299 296 297 304 301 299 300 299 297 294 296 296 296
315 314 314 316 316 315 316 318 318 319 320 319 319 319 318 318 319 310 316 317 319 319 319 319 318 314 316 316 316 309 312 311 312 312 306 312 313 310 303 301 309 309 309 308 309 309 309 310 307 305 311 312 308 299 297 295 292 292 293 293 298 295 295 294 294 297 303 300 297 291 292 294 296 294
315 315 314 310 314 316 316 315 318 317 318 317 316 317 316 317 318 318 318 317 318 316 317 317 318 316 314 315 315 314 313 311 312 312 313 312 313 312 309 310 309 310 310 310 310 310 309 310 310 309 308 308 302 301 298 295 293 292 293 293 292 292 296 294 293 292 292 292 295 298 296 292 288 288
316 316 315 315 317 318 317 316 316 316 318 320 317 317 317 316 316 317 317 316 316 316 316 314 315 314 315 314 313 313 312 313 313 312 310 306 308 312 311 311 306 308 310 309 307 308 308 308 309 311 305 300 300 297 297 296 295 293 293 292 291 293 291 292 295 294 293 291 291 291 292 294 295 295
315 318 318 316 316 316 316 315 314 315 314 314 315 315 314 316 314 316 317 316 314 315 312 313 311 311 315 304 307 303 304 306 309 307 306 304 308 307 306 309 303 304 306 309 304 302 303 304 305 311 307 303 302 300 297 296 295 292 292 292 293 292 292 291 291 290 290 291 289 289 290 291 291 292
Wind_Speed
8 7 8 8 5 3 3 3 4 4 3 5 5 5 3 3 1 0 2 2 1 3 6 2 1 2 2 4 4 5 4 2 1 2 1 5 3 6 7 8 9 8 7 6 7 7 7 7 7 7 6 6 4 5 9 7 10 13 12 13 12 10 7 11 14 14 13 12 11 10 9 8 7 6
7 6 6 6 4 8 8 5 4 3 3 4 3 2 1 1 1 1 1 1 1 1 2 3 2 1 1 1 2 4 3 1 2 1 1 2 4 8 7 8 9 8 6 5 5 5 5 6 5 6 5 6 6 6 7 6 7 11 10 10 10 9 10 13 15 14 13 12 11 10 10 8 8 7
5 4 5 4 4 3 3 3 3 3 3 2 2 2 2 1 2 1 2 1 2 1 3 3 6 4 1 3 3 3 3 2 0 2 1 1 7 9 7 8 8 7 5 4 3 3 3 3 3 4 5 4 5 7 6 5 7 7 8 8 7 9 13 14 15 15 14 12 11 9 9 8 8 7
5 7 7 6 5 4 3 4 3 3 2 2 2 1 1 0 1 1 1 0 1 2 3 2 1 6 4 2 4 0 2 1 4 3 3 3 1 8 5 5 7 6 7 4 4 3 3 3 2 3 4 5 5 5 6 5 6 7 7 8 7 11 14 15 15 15 14 12 11 10 9 8 7 6
4 4 6 4 5 5 5 3 3 3 3 2 2 2 2 2 3 3 1 1 2 1 1 2 2 3 1 3 1 3 2 3 3 5 2 4 3 2 6 4 5 8 6 6 5 4 2 1 1 2 2 4 6 6 6 3 7 9 9 9 8 12 13 14 15 15 14 12 10 9 9 8 7 6
3 1 1 4 8 9 10 6 2 3 3 2 3 4 3 3 2 1 0 1 0 2 1 4 0 4 3 3 3 1 3 2 2 4 2 4 3 4 4 5 5 7 7 7 7 6 4 2 2 3 5 6 7 8 9 7 7 10 10 11 12 13 13 13 14 15 14 13 12 11 10 9 8 7
8 10 7 8 7 6 5 9 4 1 0 2 4 2 2 1 2 2 1 1 0 1 1 2 0 4 3 1 1 2 4 0 1 2 3 2 3 3 1 5 4 8 9 8 7 6 6 3 1 4 6 6 5 5 6 6 7 8 10 11 13 14 14 14 13 14 14 13 12 12 9 8 7 8
6 6 6 6 6 7 4 1 10 6 3 2 1 1 1 0 1 1 1 2 0 1 2 2 2 2 2 1 3 4 4 4 4 1 1 1 2 4 2 3 6 7 9 6 5 6 6 4 3 3 4 4 3 3 4 5 3 4 6 11 13 15 15 14 14 13 13 12 12 11 9 8 10 10
5 4 4 3 2 3 5 5 6 6 3 1 1 1 2 1 1 2 1 1 1 0 0 1 2 1 0 2 3 5 3 3 3 3 5 5 6 3 5 4 3 6 5 4 6 6 5 4 3 2 1 1 2 1 1 3 3 1 4 8 12 14 15 15 15 14 12 12 12 11 10 10 11 11
6 4 3 5 7 5 4 3 4 4 3 2 1 3 0 1 1 3 1 1 0 0 1 1 1 1 3 3 0 4 3 1 0 2 5 6 5 5 5 4 4 1 4 4 5 2 3 4 5 4 3 3 3 5 5 5 5 3 3 5 9 12 13 14 14 13 13 13 13 11 12 13 13 10
6 6 5 5 4 5 6 5 3 4 3 3 2 1 0 0 4 2 1 0 2 1 1 1 0 2 1 3 2 2 3 2 4 5 5 4 4 3 4 6 2 2 3 4 6 5 4 7 5 4 3 5 3 4 3 4 6 7 5 4 5 10 12 13 13 12 13 14 13 13 13 13 13 11
3 4 5 5 6 6 5 4 3 2 3 3 3 2 2 1 1 2 1 1 0 2 2 1 1 0 2 2 0 1 1 3 4 4 3 3 4 3 3 3 3 4 6 6 5 3 4 3 1 3 2 4 3 2 2 5 6 7 9 8 6 5 9 12 12 13 15 14 13 13 12 12 12 10
5 5 6 6 5 5 8 6 3 4 4 2 2 3 3 1 2 2 1 1 2 2 1 2 2 3 2 1 5 3 4 4 3 1 1 3 4 2 4 4 4 4 4 4 4 4 5 2 5 4 3 4 3 4 4 3 5 5 7 10 10 8 6 10 13 14 14 14 13 13 13 12 12 10
5 5 5 5 11 10 9 8 5 3 0 2 5 5 4 3 3 3 2 2 2 1 1 4 2 3 4 2 4 2 2 3 2 4 2 3 4 2 4 3 1 2 3 2 3 5 4 4 4 1 3 6 3 1 2 2 2 5 7 8 10 11 9 9 13 14 14 14 14 13 12 12 12 12
5 3 4 5 8 8 9 7 8 7 5 6 8 8 5 3 3 3 3 2 2 2 3 2 2 3 3 2 3 3 6 3 5 3 1 1 3 3 3 3 2 0 3 3 4 5 4 4 3 1 6 5 5 3 3 1 4 6 7 8 9 10 12 11 14 15 15 14 13 13 12 12 12 12
5 5 5 5 4 6 6 6 6 8 8 8 9 8 7 6 5 3 3 3 2 2 2 2 2 2 1 3 3 2 5 5 3 3 1 2 2 3 3 3 3 2 3 3 4 6 4 3 4 4 5 4 4 3 3 4 4 5 6 8 9 10 11 12 13 15 15 14 14 13 12 12 11 11
6 6 5 4 4 6 12 8 5 6 7 8 8 8 8 6 9 9 7 4 2 1 0 1 1 1 3 6 4 2 3 2 4 2 1 4 3 2 4 3 2 2 2 3 3 5 6 3 4 4 5 4 4 4 3 3 4 5 5 6 9 11 11 12 13 14 14 14 13 13 12 12 11 11
6 6 4 5 5 4 6 5 5 4 5 7 6 5 5 4 5 6 8 7 5 2 2 1 0 1 1 5 2 3 2 3 2 3 2 2 1 3 4 5 5 4 2 2 2 4 4 3 4 3 6 4 4 4 4 4 5 6 6 7 10 12 12 12 13 14 14 14 13 13 13 12 11 11
6 7 8 6 5 5 5 6 7 6 5 5 6 5 5 5 6 5 4 4 3 3 1 1 1 2 4 5 6 4 3 3 3 3 2 2 4 3 3 6 7 7 4 4 2 2 3 2 3 4 3 6 5 3 3 4 6 7 7 8 10 12 13 12 13 13 13 13 13 13 12 12 12 11
5 5 5 5 4 4 5 8 11 7 4 6 6 6 5 5 5 6 6 7 5 3 2 1 2 3 4 6 5 4 6 5 3 1 3 1 2 4 4 4 4 1 3 4 4 2 2 1 3 2 4 4 4 3 2 3 5 7 8 10 11 12 12 11 12 12 12 12 12 12 12 12 12 11
6 6 6 6 5 4 5 8 11 11 5 3 6 5 5 5 5 5 5 9 10 9 10 11 10 9 8 9 8 9 9 7 4 2 2 3 2 4 5 5 4 3 3 3 4 2 2 1 1 4 3 2 5 3 2 3 4 7 8 9 12 12 11 11 11 11 11 12 12 12 12 12 12 12
5 6 10 8 6 5 5 10 12 11 6 3 5 5 6 5 4 3 6 4 4 8 10 9 8 7 7 8 7 7 7 7 5 4 3 1 3 3 3 3 3 6 4 2 6 0 1 0 1 2 3 3 4 5 4 4 4 6 6 8 10 12 13 13 11 11 11 11 11 11 12 13 12 8
5 5 8 11 9 7 7 13 11 11 8 5 4 5 5 5 4 4 7 7 5 3 3 2 3 1 2 2 3 4 4 6 5 3 3 0 1 2 3 4 3 5 1 2 2 1 1 2 0 1 1 2 2 2 5 4 4 4 5 5 5 9 11 11 11 11 11 12 12 12 14 14 11 6
6 6 6 9 13 10 11 12 12 12 12 8 5 5 6 5 5 5 7 8 7 6 6 5 5 4 5 4 3 4 4 3 3 4 4 4 3 3 3 3 3 3 1 1 4 3 1 0 3 0 0 1 1 2 2 4 4 5 6 6 5 6 9 10 9 12 12 11 12 13 14 14 10 7
6 7 6 6 12 14 13 12 13 13 15 13 6 5 5 4 4 7 5 9 11 6 6 4 5 6 5 5 5 5 5 5 5 5 5 6 5 5 6 5 4 2 1 1 1 2 1 3 3 2 2 0 2 2 3 4 5 6 7 7 6 6 5 5 5 5 6 10 13 15 16 15 13 7
6 6 7 7 10 15 15 14 14 15 16 16 7 4 7 8 11 8 6 7 7 5 5 5 5 5 6 6 5 6 6 7 7 7 7 7 6 6 6 6 4 2 1 1 3 1 1 1 2 2 2 1 2 3 2 2 6 6 6 5 6 7 7 6 6 5 5 5 5 6 9 15 13 11
4 5 6 5 11 16 15 13 14 14 15 10 6 9 10 9 8 4 4 7 7 6 6 6 7 7 6 6 7 7 7 8 9 8 8 8 8 7 7 6 5 5 3 2 3 1 0 2 1 3 2 1 2 3 3 3 2 6 5 5 6 6 6 7 6 6 6 6 5 8 8 9 11 12
7 6 5 6 12 15 15 13 13 12 11 9 11 9 10 8 4 3 3 5 7 7 6 7 7 7 7 7 7 8 8 7 9 9 8 8 8 7 6 6 4 3 4 3 1 1 1 2 3 3 2 1 0 2 4 6 2 4 6 6 6 6 6 6 6 6 6 6 5 6 5 5 6 7
3 5 8 9 12 13 13 10 7 4 7 6 4 8 7 5 2 2 3 4 5 7 7 7 7 6 6 6 6 7 8 8 6 6 5 5 6 6 6 4 4 3 3 2 1 0 0 1 3 4 1 1 2 2 2 4 3 3 2 8 2 5 7 7 7 8 7 7 7 7 8 8 8 7
6 9 9 11 12 11 10 8 6 5 5 9 3 4 6 4 4 4 4 5 5 6 6 7 7 6 5 5 6 4 2 6 7 8 7 6 6 6 6 3 4 4 4 4 4 4 3 2 3 2 2 2 1 2 3 3 4 2 2 1 6 4 5 6 7 7 8 8 7 7 6 7 7 9
4 7 7 7 8 9 9 5 5 3 6 5 3 3 3 4 4 6 6 6 7 7 6 6 6 5 6 5 4 5 4 4 7 9 9 8 7 6 5 5 6 6 6 5 6 5 5 4 3 3 3 3 3 4 4 1 4 6 5 2 8 5 5 6 7 8 8 7 7 6 6 6 6 6
4 5 7 9 6 6 4 2 4 2 3 4 4 5 5 5 5 5 7 7 5 5 5 5 4 4 4 5 6 6 6 6 5 7 7 8 7 7 6 4 5 6 4 6 4 4 5 4 3 3 4 3 3 3 1 1 3 4 3 1 1 3 4 10 8 7 7 7 6 7 6 7 7 7
5 5 5 5 5 5 5 4 5 5 5 6 6 7 6 6 6 6 5 7 7 6 5 6 6 6 5 5 5 6 6 6 6 6 7 6 7 7 7 7 5 3 3 6 5 6 4 4 4 3 3 3 4 4 2 3 4 4 5 5 4 6 6 5 8 7 8 7 6 6 6 6 6 7
8 7 7 7 7 7 6 7 7 7 7 7 7 7 8 7 7 7 7 7 5 5 6 6 5 5 5 6 6 6 5 2 1 3 6 5 6 7 7 6 5 4 4 5 7 6 6 5 5 3 3 4 3 3 4 4 5 5 4 5 4 4 3 2 3 10 9 8 7 7 6 6 6 6
7 7 7 6 7 7 8 8 8 8 8 8 8 7 8 8 8 8 7 6 5 5 5 6 6 5 5 4 4 4 5 6 4 5 6 5 5 6 6 6 5 5 5 6 5 8 7 7 6 5 4 4 4 5 7 8 6 6 4 5 6 5 3 3 7 9 7 5 6 6 6 6 6 6
7 6 7 6 6 6 6 7 7 8 8 7 7 6 6 8 7 7 7 7 7 7 7 6 6 6 6 5 6 6 6 7 8 6 4 5 5 6 6 7 7 6 6 6 4 7 7 7 7 6 6 5 5 6 7 12 14 7 7 6 6 3 2 3 3 8 8 7 7 7 6 5 6 7
7 5 5 5 2 0 1 3 5 7 4 2 1 2 5 6 7 8 7 7 6 5 5 6 6 6 6 5 5 5 6 7 6 6 6 5 5 5 7 7 7 6 6 6 5 6 7 7 7 7 6 6 6 7 9 2 12 17 10 9 6 3 3 3 4 2 4 5 6 6 5 5 3 2
5 3 2 4 4 3 4 5 5 4 9 8 3 6 5 4 2 3 4 7 6 6 6 6 4 3 2 2 5 5 5 6 6 7 7 6 6 5 6 7 7 7 7 6 5 5 9 8 8 7 7 8 7 7 7 5 1 6 11 6 7 2 2 5 4 4 4 4 3 4 4 4 4 5
5 3 1 3 3 4 3 2 2 7 10 8 8 10 8 4 1 0 1 3 5 6 6 6 6 5 6 5 4 5 5 5 6 7 7 8 8 8 6 7 7 7 6 7 8 6 8 9 9 9 9 8 8 7 8 6 7 5 7 14 6 3 1 4 4 4 5 4 3 4 4 2 5 6
4 6 4 3 3 3 4 4 7 11 8 3 2 1 0 0 0 0 0 1 2 3 2 2 2 3 4 4 3 3 4 4 5 6 7 7 7 8 7 5 8 8 7 7 7 7 7 10 10 10 9 9 8 9 5 4 3 1 3 8 15 10 5 3 5 6 4 6 5 5 5 5 4 2
4 3 2 2 2 2 3 3 2 1 1 2 3 4 4 3 1 0 1 3 2 1 0 1 2 2 2 4 4 5 5 5 5 6 6 6 8 7 9 8 5 6 8 8 9 8 7 9 12 16 13 9 8 3 4 2 1 2 4 6 9 5 9 5 1 5 4 3 3 5 5 6 4 3
5 5 4 3 3 3 3 3 3 1 1 1 1 1 1 1 1 4 1 1 2 2 3 4 3 3 4 4 3 3 6 6 6 6 5 6 7 8 10 7 10 10 8 9 9 8 7 5 10 13 11 9 7 6 7 7 6 5 6 3 2 4 6 7 8 6 4 5 4 2 1 1 2 0
5 4 5 4 5 5 5 5 2 2 2 3 3 2 2 1 0 0 1 1 1 1 1 1 0 0 2 4 4 1 3 4 5 5 6 6 7 5 4 6 9 11 10 9 7 7 7 6 7 8 8 9 7 9 10 8 7 6 4 4 5 4 3 6 6 6 8 9 7 4 3 5 5 2
5 4 5 5 3 2 2 4 5 3 2 1 1 1 1 1 2 1 1 1 1 1 1 1 1 0 1 2 2 0 1 1 2 3 3 3 2 4 6 8 8 8 8 6 5 5 5 5 7 8 7 7 6 7 9 7 7 6 7 6 3 5 5 3 3 5 6 8 6 6 5 6 5 7
3 2 2 3 2 1 1 2 2 3 2 2 2 1 0 0 1 1 1 1 2 1 0 1 1 1 4 3 2 2 4 3 2 2 3 4 5 5 4 5 5 5 10 11 5 5 7 7 6 5 7 7 6 8 8 8 8 6 5 7 7 7 6 6 6 4 2 1 2 3 5 6 5 5
Wind_Direction
200 203 208 221 206 220 277 204 199 190 185 203 210 230 210 154 178 278 150 146 192 158 145 139 3 71 59 133 151 172 147 143 311 1 93 155 159 168 149 125 95 80 63 52 40 40 35 35 31 11 12 353 337 258 245 215 196 192 200 201 197 184 166 134 137 146 156 163 160 161 159 159 153 147
206 199 206 231 190 176 214 204 200 199 200 220 224 239 354 255 197 227 135 146 144 105 34 90 152 84 180 100 131 90 107 77 250 308 8 58 145 155 143 115 106 103 96 81 72 53 45 34 24 8 0 340 320 297 265 226 207 205 202 205 188 176 142 140 145 152 159 163 160 162 161 159 157 152
175 214 235 229 227 211 188 199 196 189 207 203 256 227 206 268 32 19 359 141 322 23 112 103 119 177 123 61 76 41 109 242 19 53 22 39 150 136 116 118 118 123 124 128 109 92 78 49 22 357 347 328 321 309 268 224 201 209 193 193 169 138 146 152 152 156 160 161 159 161 162 162 159 152
186 201 208 210 200 194 193 188 181 192 182 207 252 263 185 184 109 56 336 59 154 12 94 62 111 116 124 147 83 114 43 127 88 42 340 302 353 114 112 131 135 143 146 139 127 107 90 60 38 352 339 316 305 296 289 250 177 190 180 184 150 151 154 154 157 158 159 159 159 158 165 166 159 152
203 197 221 217 204 191 188 172 177 175 188 193 205 255 231 226 154 185 222 280 94 38 56 141 68 89 82 103 127 77 76 23 6 345 330 52 12 98 133 145 175 160 151 154 156 138 114 100 338 318 303 305 307 304 296 257 170 188 181 171 150 157 153 159 163 160 159 161 161 161 168 165 155 154
210 239 345 353 358 10 350 320 178 184 194 199 200 213 223 211 164 154 55 22 85 144 215 66 216 90 20 73 64 83 89 41 355 298 67 24 27 324 138 157 181 187 179 179 173 157 143 125 346 317 323 340 359 351 337 311 196 193 190 167 158 160 159 161 163 162 164 168 164 164 168 162 156 152
39 39 41 29 0 15 325 286 287 328 344 185 234 241 206 198 128 142 125 67 356 26 118 158 108 92 118 127 156 97 93 35 270 335 56 25 284 268 187 151 125 195 205 191 170 161 143 126 0 346 353 359 3 358 2 349 319 243 184 166 162 163 160 161 161 163 167 168 162 157 162 159 144 130
127 160 135 176 172 168 150 344 299 270 192 231 162 232 288 193 123 133 103 146 94 66 1 67 49 89 85 69 82 82 60 34 339 306 77 332 336 309 17 29 141 198 206 182 169 173 145 131 88 36 14 7 359 353 23 9 18 297 236 171 165 164 163 159 158 162 168 168 156 151 144 152 132 131
144 160 168 179 150 170 161 189 234 247 231 128 279 239 240 119 11 354 144 146 140 114 191 92 91 118 111 107 85 93 74 12 350 7 39 1 316 19 35 357 156 181 183 172 193 182 151 128 111 115 83 350 321 300 328 62 58 182 220 193 172 170 165 159 158 159 160 149 138 134 136 129 128 134
143 170 166 159 173 175 170 216 258 271 221 199 219 252 85 71 124 182 175 107 63 71 43 80 66 231 164 109 125 112 94 133 40 15 32 354 1 15 15 343 310 132 173 180 182 146 135 158 171 196 143 74 12 338 357 35 65 102 156 187 184 172 165 159 156 154 147 134 131 133 126 130 129 130
168 169 164 181 183 187 185 193 229 277 275 186 206 161 228 76 177 178 85 70 94 74 15 0 245 263 113 131 132 135 156 157 88 62 26 1 336 356 347 314 302 37 356 354 351 113 178 175 182 200 176 96 45 353 23 66 96 108 98 136 199 183 164 159 154 141 131 131 134 134 135 134 131 137
187 179 191 193 202 194 177 192 215 267 278 197 172 124 92 246 55 78 100 122 39 99 83 248 281 318 109 160 179 163 85 59 46 59 56 323 315 326 315 319 12 19 24 360 358 110 112 135 166 184 131 123 141 185 72 71 99 118 132 138 155 209 174 156 145 136 135 138 137 134 134 133 132 135
193 188 195 196 203 208 200 187 198 246 262 264 162 141 154 139 123 95 33 93 92 94 136 234 198 258 278 154 142 102 89 102 124 104 76 331 295 310 3 340 35 39 26 14 354 332 326 183 189 188 162 125 155 204 143 112 101 120 139 151 156 166 190 160 144 138 138 135 135 138 140 136 133 130
195 203 204 208 205 206 208 202 198 217 120 190 139 150 154 173 155 162 154 127 127 137 213 247 216 218 241 116 118 138 127 152 120 86 53 332 313 352 13 319 48 13 45 10 333 307 297 315 306 261 130 148 155 108 55 28 90 138 147 156 159 150 154 157 139 137 136 138 140 142 139 135 132 127
211 216 211 216 210 203 209 203 175 166 159 138 135 143 145 155 163 163 154 131 142 166 242 233 220 246 245 138 122 122 153 116 100 117 98 304 334 355 353 330 299 17 76 24 325 311 300 309 322 349 95 134 133 103 74 130 119 139 148 155 154 149 150 159 147 141 140 139 140 141 140 139 138 135
182 206 221 203 185 187 197 197 178 176 164 151 134 129 129 131 113 123 151 157 171 204 241 284 278 303 171 141 128 92 69 93 89 69 37 86 23 4 349 320 303 277 64 20 323 302 311 347 335 324 100 100 87 81 140 141 112 132 141 151 148 147 148 153 146 139 140 143 144 143 141 140 140 140
190 204 209 201 182 185 192 199 188 179 166 160 155 139 128 136 139 128 109 97 104 129 103 223 267 23 7 63 68 88 136 135 117 129 69 48 18 335 299 269 289 306 59 1 305 310 304 308 294 298 107 110 120 111 101 94 109 107 131 138 138 139 141 144 143 140 141 141 141 143 144 144 146 147
198 196 196 203 199 181 176 192 198 200 183 164 164 166 166 163 151 138 140 137 126 130 115 6 345 33 97 125 144 127 125 107 126 109 85 105 280 282 263 263 258 252 142 204 343 306 299 316 336 29 109 108 86 67 40 83 95 105 109 126 125 130 135 141 143 139 142 144 145 149 147 143 143 143
201 195 198 203 190 186 178 188 195 192 198 169 176 178 179 176 169 169 167 159 154 162 164 260 330 41 43 121 141 136 122 94 80 118 151 183 218 242 284 296 280 270 194 163 133 269 299 319 18 339 129 123 96 85 53 55 98 104 112 116 123 127 133 141 142 141 143 146 148 148 145 143 144 142
190 191 196 201 197 190 189 186 192 203 196 169 171 178 180 188 178 176 174 157 113 114 172 222 95 94 94 96 106 112 104 86 74 52 28 309 279 270 254 260 276 328 186 145 156 226 270 344 21 306 309 110 110 105 86 43 88 105 116 125 124 128 132 138 141 142 145 147 149 148 146 144 140 138
184 197 197 189 195 187 198 181 186 215 216 201 169 175 185 183 182 164 135 106 97 94 87 89 101 116 111 100 101 91 93 112 111 74 18 308 353 1 347 312 346 349 161 214 184 215 283 325 68 315 305 13 134 149 128 101 68 101 111 124 128 128 131 134 142 144 148 150 150 146 142 137 132 126
186 192 192 195 192 190 195 177 191 210 187 220 186 187 173 183 177 159 130 125 63 77 88 91 97 100 105 110 104 110 119 124 122 132 183 240 26 317 287 299 328 308 303 206 188 54 241 316 65 9 307 325 122 140 120 101 97 101 107 122 133 137 140 145 148 147 145 147 145 142 140 137 133 129
182 193 194 200 197 193 178 172 192 202 196 215 199 168 175 177 181 177 148 151 146 149 144 133 136 103 154 166 166 152 140 144 146 172 196 258 215 259 303 309 317 317 6 355 94 183 299 28 299 142 356 335 69 97 120 137 154 149 133 132 131 143 139 141 143 145 150 150 148 147 147 149 146 141
187 189 190 198 201 199 170 179 190 199 195 208 206 164 177 181 195 178 153 162 164 179 188 183 188 188 175 177 186 150 149 175 189 192 192 201 208 227 242 263 286 267 356 326 26 67 303 35 287 49 108 72 308 134 151 157 180 162 152 146 144 153 140 135 140 149 150 153 153 154 158 163 166 156
182 185 188 187 198 201 194 194 200 201 201 209 203 188 195 186 172 140 143 162 170 177 186 188 182 196 193 193 188 184 176 181 191 198 207 210 205 198 204 227 249 284 79 240 27 74 342 353 320 355 320 218 275 321 181 170 166 175 172 162 146 157 155 152 126 135 148 158 163 165 169 176 191 182
197 180 180 189 188 196 199 202 200 201 197 205 205 184 136 129 146 159 164 159 171 175 179 187 196 193 199 207 199 200 194 191 191 195 201 208 211 201 208 199 205 212 184 213 108 77 75 326 314 336 300 310 305 312 315 183 180 184 167 159 150 161 165 150 144 139 144 153 160 181 187 185 196 212
141 138 167 187 180 192 196 197 200 197 199 191 197 149 135 131 131 152 167 158 167 181 183 190 200 201 201 200 203 199 202 200 193 191 197 199 199 208 214 214 208 201 213 234 190 215 218 252 239 264 269 4 349 323 302 324 156 163 138 140 147 162 169 154 153 149 153 160 166 167 181 203 214 231
146 153 163 182 192 189 192 190 194 192 185 195 196 152 143 132 122 161 189 171 171 183 191 198 205 209 203 207 204 199 203 203 191 193 190 195 194 201 214 221 214 181 205 210 191 149 218 278 294 260 220 154 265 279 301 306 327 144 148 157 164 164 162 161 151 147 152 155 143 156 170 184 218 229
111 137 160 177 180 193 184 166 152 167 199 220 197 187 154 153 165 196 208 208 184 188 205 212 212 210 210 213 211 206 203 206 171 177 181 180 187 201 203 197 181 187 160 140 139 161 176 277 274 295 311 185 189 235 276 271 318 276 128 136 138 180 178 177 167 154 157 157 154 170 185 186 185 198
98 113 110 112 116 123 134 145 166 177 178 201 190 139 169 195 208 207 208 220 218 219 211 217 224 217 214 219 224 220 161 159 166 171 171 173 196 186 174 180 233 230 202 181 180 171 171 194 251 258 269 291 254 266 247 271 298 298 47 101 147 161 197 174 163 153 161 167 163 173 189 191 194 177
106 108 107 122 127 125 144 135 148 149 134 136 159 206 198 212 216 211 219 210 215 223 226 227 225 222 219 214 200 204 168 164 156 168 166 172 168 165 185 194 230 234 211 194 188 180 167 182 222 211 212 235 254 237 248 291 288 282 276 229 148 176 200 185 166 170 171 162 155 160 162 175 187 199
122 103 89 100 100 110 116 108 133 178 164 181 174 198 202 213 220 226 224 231 237 231 224 236 236 237 224 221 203 174 178 189 177 165 163 166 177 174 178 198 231 231 190 187 181 159 150 180 187 206 200 208 228 255 296 273 269 291 295 299 307 286 145 184 194 160 162 155 153 165 171 173 179 184
136 121 121 128 140 157 165 181 185 190 189 192 197 198 202 204 206 210 211 216 218 225 231 232 225 226 223 218 189 176 179 192 195 178 175 178 179 187 185 200 215 218 210 164 190 175 181 196 191 189 226 240 229 234 240 288 272 249 250 265 248 232 251 194 174 167 151 157 170 160 180 185 185 182
155 163 167 172 175 177 185 189 197 196 196 197 198 201 199 197 197 201 206 213 216 208 222 235 239 236 234 228 191 191 181 201 250 212 185 192 181 181 192 202 222 231 251 200 177 185 178 180 176 196 230 253 259 224 203 222 259 283 277 278 246 249 248 236 117 152 165 173 156 162 173 190 191 183
193 187 186 184 186 188 193 196 198 200 195 199 197 195 188 200 199 193 195 195 196 207 216 223 232 234 233 213 199 198 172 179 207 228 215 207 189 196 192 200 201 215 221 248 176 175 163 168 158 175 206 231 266 278 227 209 215 240 266 268 264 228 235 180 118 146 157 152 153 165 188 185 192 194
195 195 192 192 196 191 199 203 202 203 205 191 191 189 178 189 198 193 197 182 186 199 202 208 208 217 224 220 199 200 193 181 204 223 229 208 202 196 203 198 201 207 223 231 218 160 167 161 164 175 186 208 217 255 268 227 207 209 215 246 253 227 179 124 113 130 155 170 177 177 186 182 184 186
197 214 195 180 200 233 344 3 0 341 340 345 344 248 194 194 186 191 193 179 194 200 203 202 208 207 213 205 181 186 182 182 197 207 235 244 225 208 200 202 196 206 226 228 208 162 168 163 177 170 187 210 219 232 244 267 227 217 197 214 235 234 167 135 121 126 165 156 176 179 181 174 190 179
201 162 125 90 98 87 50 346 355 322 276 279 295 305 299 280 223 175 164 169 187 195 196 200 211 211 198 153 146 177 187 194 201 208 222 233 242 235 216 205 205 207 218 228 227 190 176 173 179 182 181 204 214 232 263 282 296 262 223 200 195 224 149 130 150 177 211 178 156 177 169 154 185 146
70 357 207 130 125 116 129 141 173 234 241 233 226 222 224 214 173 148 159 178 180 212 201 196 203 199 188 182 171 172 185 190 200 211 218 228 234 240 220 207 205 212 206 216 224 214 175 186 183 186 192 201 210 213 222 225 241 252 195 193 168 149 170 158 190 188 171 167 167 139 107 103 83 106
146 161 178 162 155 170 188 193 211 221 234 249 272 292 332 77 107 88 330 28 19 5 327 226 207 185 196 179 180 186 196 204 217 224 226 228 229 238 241 201 206 212 215 221 230 220 189 189 187 188 196 207 209 220 204 178 212 191 174 203 204 192 187 179 184 174 192 179 162 150 161 145 164 174
172 166 185 175 198 203 190 199 222 275 23 21 12 28 19 38 18 337 65 75 113 128 324 252 209 213 215 191 193 199 213 217 222 230 236 237 236 230 238 245 236 213 215 226 230 233 213 196 194 192 193 196 209 160 82 91 139 232 213 232 216 112 71 53 222 171 164 152 137 157 174 180 185 161
178 182 184 185 209 243 274 282 277 300 22 51 7 17 43 358 85 90 87 201 214 200 196 186 162 213 246 272 248 207 209 215 225 233 231 241 243 236 232 224 227 232 223 225 229 230 232 210 181 181 195 196 189 188 211 197 201 214 217 229 130 95 61 65 49 55 118 139 129 107 78 45 59 129
194 199 201 204 198 193 204 204 181 96 50 36 14 18 12 18 353 290 214 227 284 294 266 282 252 118 214 210 226 242 275 258 247 245 241 231 233 246 252 245 241 241 233 233 232 231 235 216 198 180 183 187 195 189 209 207 202 185 155 165 176 147 84 66 73 76 71 72 83 128 155 161 133 217
195 205 221 205 176 144 109 71 60 73 76 45 45 22 318 342 333 314 327 309 249 207 85 51 6 177 113 95 97 153 224 308 333 316 318 326 291 252 245 233 227 253 270 262 251 263 270 233 203 189 187 199 194 187 208 195 202 189 171 172 156 155 175 160 103 66 68 73 83 102 94 99 126 143
127 113 53 54 63 43 103 134 146 148 153 172 184 209 209 222 255 309 300 322 322 325 247 201 199 190 150 167 163 219 245 222 238 255 257 266 274 278 293 282 274 252 234 237 259 296 291 283 258 195 190 195 190 190 195 187 193 183 172 139 170 177 172 162 162 183 166 152 34 107 141 133 112 121